Location: *
(47.8307°S, 178.3954°E)
Time: 07:51:03
(UTC+00:00)

CENTAUR R/B - Pass Details

Date: 12 August 2024
Orbit: 662 x 1522 km, 63.4° (Epoch: 18 September)

Event Time Altitude Azimuth Distance (km) Brightness Sun altitude
Exits shadow 15:59:10 19° 185° (S) 2,048 4.2 -32.8°
Maximum altitude 16:00:10 19° 172° (S) 1,971 4.3 -32.7°
Drops below altitude 10° 16:04:05 10° 126° (SE) 2,389 5.3 -32.0°
Sets 16:07:02 0° 107° (ESE) 3,206 6.4 -31.5°
